Simultaneous Nadir Overpasses (SNOs) Predictions

Prediction of SNOs between GOES-16 and AQUA Satellite Orbit:

Table of predicted SNOs for the next 14.0 days since TLE Epoch: 3/27/2021
Index Date Time (GOES-16) GOES-16 Lat,Lon AQUA Lat,Lon Distance(km) Time Diff (sec)
1 03/27/2021 06:44:24 -0.04, -75.22 0.28, -76.84 183.11 80
2 03/29/2021 06:29:32 -0.04, -75.24 -0.31, -73.88 154.55 80
3 03/29/2021 18:50:56 0.04, -75.24 -0.81, -79.07 435.97 80
4 03/31/2021 06:17:21 -0.04, -75.26 -0.97, -70.93 492.49 80
5 03/31/2021 18:38:45 0.04, -75.26 -0.15, -76.12 97.87 80
6 04/02/2021 18:29:14 0.04, -75.28 0.51, -73.17 240.52 80
7 04/03/2021 06:50:29 -0.03, -75.29 0.61, -78.32 344.21 80
8 04/05/2021 06:38:17 -0.03, -75.32 -0.01, -75.36 5.39 80
9 04/07/2021 06:23:25 -0.02, -75.35 -0.62, -72.40 334.71 80
10 04/07/2021 18:44:50 0.02, -75.35 -0.44, -77.60 255.67 80
11 04/09/2021 18:35:18 0.01, -75.39 0.19, -74.64 85.48 80
